• în România
  • Lista ţărilor
  • Pe 7 zile
  • Temperatura apei
  • Hartă satelitară
  • Meteo pe hartă
  • Widget-uri
  • user-avatar
    Intrare

    Meteo pe oră la Gjirokaster

    Astăzi, 20 Ianuarie, Sâmbătă

    Timp Temperatura Precipitaţii Vânt Presiune Umiditate
    00:00 -1°C° 0,1 mm 4 m/s 649 mmHg 93%
    01:00 -1°C° 0 mm 4 m/s 649 mmHg 95%
    02:00 0°C° 0,3 mm 4 m/s 648 mmHg 95%
    03:00 0°C° 0,3 mm 4 m/s 648 mmHg 95%
    04:00 0°C° 0,3 mm 4 m/s 648 mmHg 95%
    05:00 0°C° 0,2 mm 4 m/s 648 mmHg 95%
    06:00 0°C° 0,2 mm 4 m/s 648 mmHg 95%
    07:00 0°C° 0,2 mm 4 m/s 648 mmHg 95%
    08:00 +1°C° 0,3 mm 4 m/s 648 mmHg 94%
    09:00 +1°C° 0,3 mm 4 m/s 648 mmHg 93%
    10:00 +3°C° 0,3 mm 4 m/s 648 mmHg 92%
    11:00 +3°C° 0,7 mm 4 m/s 647 mmHg 92%
    12:00 +3°C° 0,7 mm 4 m/s 647 mmHg 92%
    13:00 +3°C° 0,7 mm 4 m/s 647 mmHg 92%
    14:00 +3°C° 0,8 mm 4 m/s 647 mmHg 93%
    15:00 +3°C° 0,8 mm 3 m/s 647 mmHg 93%
    16:00 +2°C° 0,8 mm 3 m/s 647 mmHg 94%
    17:00 +3°C° 0,4 mm 2 m/s 647 mmHg 94%
    18:00 +3°C° 0,4 mm 2 m/s 647 mmHg 95%
    19:00 +2°C° 0,4 mm 2 m/s 647 mmHg 95%
    20:00 +2°C° 0,1 mm 2 m/s 647 mmHg 96%
    21:00 +2°C° 0,1 mm 2 m/s 647 mmHg 96%
    22:00 +2°C° 0,1 mm 2 m/s 647 mmHg 96%
    23:00 +2°C° 0,1 mm 2 m/s 647 mmHg 96%

    Mâine, 21 Ianuarie, Duminică

    Timp Temperatura Precipitaţii Vânt Presiune Umiditate
    00:00 +2°C° 0,1 mm 2 m/s 646 mmHg 96%
    01:00 +1°C° 0,1 mm 3 m/s 646 mmHg 96%
    02:00 +1°C° 0,1 mm 3 m/s 646 mmHg 95%
    03:00 +1°C° 0,1 mm 3 m/s 646 mmHg 95%
    04:00 +1°C° 0,1 mm 3 m/s 645 mmHg 95%
    05:00 +1°C° 0,1 mm 3 m/s 645 mmHg 95%
    06:00 +1°C° 0,1 mm 3 m/s 644 mmHg 95%
    07:00 +1°C° 0,1 mm 3 m/s 644 mmHg 95%
    08:00 +1°C° 0,1 mm 4 m/s 644 mmHg 92%
    09:00 +1°C° 0,1 mm 4 m/s 644 mmHg 89%
    10:00 +2°C° 0,1 mm 5 m/s 644 mmHg 86%
    11:00 +2°C° 0,5 mm 5 m/s 643 mmHg 85%
    12:00 +2°C° 0,5 mm 5 m/s 642 mmHg 84%
    13:00 +2°C° 0,5 mm 5 m/s 642 mmHg 83%
    14:00 +1°C° 2,3 mm 4 m/s 641 mmHg 87%
    15:00 +1°C° 2,3 mm 4 m/s 641 mmHg 91%
    16:00 0°C° 2,3 mm 4 m/s 640 mmHg 95%
    17:00 0°C° 1,4 mm 4 m/s 640 mmHg 95%
    18:00 0°C° 1,4 mm 4 m/s 640 mmHg 94%
    19:00 0°C° 1,4 mm 5 m/s 640 mmHg 93%
    20:00 0°C° 0,1 mm 5 m/s 641 mmHg 93%
    21:00 -1°C° 0,1 mm 5 m/s 641 mmHg 93%
    22:00 -1°C° 0,1 mm 5 m/s 641 mmHg 93%
    23:00 -2°C° 0 mm 6 m/s 641 mmHg 91%

    Poimâine, 22 Ianuarie, Luni

    Timp Temperatura Precipitaţii Vânt Presiune Umiditate
    00:00 -3°C° 0 mm 6 m/s 642 mmHg 90%
    01:00 -3°C° 0 mm 7 m/s 642 mmHg 89%
    02:00 -3°C° 0 mm 7 m/s 642 mmHg 89%
    03:00 -4°C° 0 mm 7 m/s 642 mmHg 89%
    04:00 -4°C° 0 mm 7 m/s 642 mmHg 89%
    05:00 -5°C° 0 mm 6 m/s 642 mmHg 88%
    06:00 -5°C° 0 mm 6 m/s 642 mmHg 88%
    07:00 -6°C° 0 mm 6 m/s 643 mmHg 87%
    08:00 -5°C° 0 mm 6 m/s 643 mmHg 80%
    09:00 -4°C° 0 mm 6 m/s 644 mmHg 73%
    10:00 -3°C° 0 mm 6 m/s 645 mmHg 65%
    11:00 -3°C° 0 mm 6 m/s 645 mmHg 63%
    12:00 -2°C° 0 mm 6 m/s 645 mmHg 60%
    13:00 -2°C° 0 mm 6 m/s 645 mmHg 57%
    14:00 -1°C° 0 mm 5 m/s 645 mmHg 59%
    15:00 -1°C° 0 mm 5 m/s 646 mmHg 62%
    16:00 -2°C° 0 mm 4 m/s 646 mmHg 64%
    17:00 -3°C° 0 mm 4 m/s 646 mmHg 67%
    18:00 -4°C° 0 mm 4 m/s 646 mmHg 71%
    19:00 -5°C° 0 mm 4 m/s 647 mmHg 74%
    20:00 -5°C° 0 mm 4 m/s 647 mmHg 74%
    21:00 -5°C° 0 mm 4 m/s 647 mmHg 74%
    22:00 -5°C° 0 mm 4 m/s 647 mmHg 74%
    23:00 -5°C° 0 mm 3 m/s 647 mmHg 74%

    23 Ianuarie, Marţi

    Timp Temperatura Precipitaţii Vânt Presiune Umiditate
    00:00 -5°C° 0 mm 3 m/s 648 mmHg 73%
    01:00 -5°C° 0 mm 3 m/s 648 mmHg 72%
    02:00 -5°C° 0 mm 3 m/s 648 mmHg 71%
    03:00 -5°C° 0 mm 3 m/s 648 mmHg 71%
    04:00 -4°C° 0 mm 2 m/s 648 mmHg 70%
    05:00 -4°C° 0 mm 2 m/s 648 mmHg 69%
    06:00 -4°C° 0 mm 2 m/s 649 mmHg 67%
    07:00 -4°C° 0 mm 2 m/s 649 mmHg 66%
    08:00 -3°C° 0 mm 2 m/s 650 mmHg 60%
    09:00 -1°C° 0 mm 2 m/s 651 mmHg 54%
    10:00 +2°C° 0 mm 2 m/s 651 mmHg 48%
    11:00 +3°C° 0 mm 2 m/s 652 mmHg 45%
    12:00 +5°C° 0 mm 1 m/s 652 mmHg 43%
    13:00 +5°C° 0 mm 1 m/s 652 mmHg 40%
    14:00 +5°C° 0 mm 1 m/s 652 mmHg 45%
    15:00 +4°C° 0 mm 1 m/s 652 mmHg 50%
    16:00 +3°C° 0 mm 1 m/s 652 mmHg 56%
    17:00 +2°C° 0 mm 1 m/s 652 mmHg 57%
    18:00 +1°C° 0 mm 1 m/s 653 mmHg 58%
    19:00 -2°C° 0 mm 2 m/s 653 mmHg 60%
    20:00 -2°C° 0 mm 2 m/s 653 mmHg 60%
    21:00 -3°C° 0 mm 2 m/s 653 mmHg 60%
    22:00 -3°C° 0 mm 2 m/s 654 mmHg 60%
    23:00 -3°C° 0 mm 2 m/s 654 mmHg 59%

    24 Ianuarie, Miercuri

    Timp Temperatura Precipitaţii Vânt Presiune Umiditate
    00:00 -4°C° 0 mm 2 m/s 654 mmHg 58%
    01:00 -4°C° 0 mm 2 m/s 654 mmHg 58%
    02:00 -4°C° 0 mm 2 m/s 654 mmHg 57%
    03:00 -4°C° 0 mm 2 m/s 654 mmHg 57%
    04:00 -5°C° 0 mm 3 m/s 654 mmHg 57%
    05:00 -5°C° 0 mm 3 m/s 655 mmHg 58%
    06:00 -6°C° 0 mm 3 m/s 655 mmHg 58%
    07:00 -6°C° 0 mm 3 m/s 655 mmHg 59%
    08:00 -3°C° 0 mm 2 m/s 656 mmHg 54%
    09:00 -1°C° 0 mm 2 m/s 657 mmHg 50%
    10:00 +1°C° 0 mm 2 m/s 658 mmHg 45%
    11:00 +2°C° 0 mm 2 m/s 658 mmHg 42%
    12:00 +4°C° 0 mm 1 m/s 658 mmHg 40%
    13:00 +4°C° 0 mm 1 m/s 658 mmHg 38%
    14:00 +4°C° 0 mm 1 m/s 658 mmHg 42%
    15:00 +3°C° 0 mm 1 m/s 658 mmHg 47%
    16:00 +3°C° 0 mm 1 m/s 658 mmHg 52%
    17:00 +1°C° 0 mm 1 m/s 658 mmHg 54%
    18:00 -2°C° 0 mm 2 m/s 658 mmHg 56%
    19:00 -3°C° 0 mm 2 m/s 658 mmHg 59%
    20:00 -3°C° 0 mm 2 m/s 658 mmHg 58%
    21:00 -4°C° 0 mm 2 m/s 658 mmHg 58%
    22:00 -4°C° 0 mm 2 m/s 658 mmHg 58%
    23:00 -4°C° 0 mm 2 m/s 657 mmHg 57%

    25 Ianuarie, Joi

    Timp Temperatura Precipitaţii Vânt Presiune Umiditate
    00:00 -4°C° 0 mm 2 m/s 657 mmHg 56%
    01:00 -4°C° 0 mm 2 m/s 657 mmHg 54%
    02:00 -4°C° 0 mm 2 m/s 657 mmHg 53%
    03:00 -4°C° 0 mm 2 m/s 656 mmHg 51%
    04:00 -4°C° 0 mm 2 m/s 656 mmHg 50%
    05:00 -4°C° 0 mm 2 m/s 656 mmHg 49%
    06:00 -2°C° 0 mm 1 m/s 656 mmHg 47%
    07:00 -2°C° 0 mm 1 m/s 656 mmHg 46%
    08:00 -1°C° 0 mm 1 m/s 656 mmHg 42%
    09:00 +1°C° 0 mm 1 m/s 656 mmHg 38%
    10:00 +3°C° 0 mm 1 m/s 657 mmHg 34%
    11:00 +4°C° 0 mm 1 m/s 656 mmHg 34%
    12:00 +4°C° 0 mm 2 m/s 656 mmHg 34%
    13:00 +5°C° 0 mm 2 m/s 656 mmHg 34%
    14:00 +4°C° 0 mm 2 m/s 655 mmHg 41%
    15:00 +3°C° 0 mm 2 m/s 655 mmHg 47%
    16:00 +2°C° 0 mm 2 m/s 655 mmHg 53%
    17:00 +1°C° 0 mm 2 m/s 654 mmHg 55%
    18:00 -1°C° 0 mm 2 m/s 654 mmHg 57%
    19:00 -2°C° 0 mm 2 m/s 654 mmHg 59%
    20:00 -3°C° 0 mm 2 m/s 654 mmHg 58%
    21:00 -3°C° 0 mm 2 m/s 654 mmHg 56%
    22:00 -3°C° 0 mm 2 m/s 654 mmHg 55%
    23:00 -3°C° 0 mm 2 m/s 654 mmHg 54%
    Arată mai mult